{"data":{"norad_id":65504,"epoch":"2026-09-20T21:09:51.021792Z","epoch_age_seconds":78933,"freshness":"FRESH","line1":"1 65504U 25198N   26263.88184053  .00020960  00000+0  62946-3 0  9997","line2":"2 65504  53.1575  80.1810 0001164  73.9565 286.1566 15.34413173 58563","mean_motion":15.34413173,"eccentricity":0.0001164,"inclination_deg":53.1575,"raan_deg":80.181,"arg_perigee_deg":73.9565,"mean_anomaly_deg":286.1566,"bstar":0.00062946,"rev_number":5856,"period_min":93.846952394484,"perigee_km":461.86781830854,"apogee_km":463.46035680172,"semimajor_km":6840.8010875551,"source":"CELESTRAK","updated_at":"2026-09-21T09:00:35.643586Z"}}